Time,TemperatureF,DewpointF,PressureIn,WindDirection,WindDirectionDegrees,WindSpeedMPH,WindSpeedGustMPH,Humidity,HourlyPrecipIn,Conditions,Clouds,dailyrainin,SoftwareType,DateUTC
2013-07-05 00:01:00,72.4,48.0,25.63,SSE,157,4.0,11.9,42,0.00,,,0.00,Rainwise IP-100,2013-07-05 06:01:00,
2013-07-05 00:06:00,72.3,48.0,25.64,SSE,157,8.9,11.2,43,0.00,,,0.00,Rainwise IP-100,2013-07-05 06:06:00,
2013-07-05 00:11:00,72.2,48.0,25.64,SSE,157,11.4,11.4,43,0.00,,,0.00,Rainwise IP-100,2013-07-05 06:11:00,
2013-07-05 00:16:00,72.1,48.0,25.63,South,180,5.1,11.7,43,0.00,,,0.00,Rainwise IP-100,2013-07-05 06:16:00,
2013-07-05 00:21:00,71.9,49.0,25.63,SE,135,7.9,11.0,44,0.00,,,0.00,Rainwise IP-100,2013-07-05 06:21:00,
2013-07-05 00:26:00,71.7,48.0,25.63,SE,135,1.9,11.2,44,0.00,,,0.00,Rainwise IP-100,2013-07-05 06:26:00,
2013-07-05 00:31:00,71.4,48.0,25.63,ESE,112,4.4,6.8,44,0.00,,,0.00,Rainwise IP-100,2013-07-05 06:31:00,
2013-07-05 00:36:00,71.1,48.0,25.64,SSE,157,3.5,8.2,45,0.00,,,0.00,Rainwise IP-100,2013-07-05 06:36:00,
2013-07-05 00:41:00,70.8,49.0,25.63,SSE,157,5.6,8.9,46,0.00,,,0.00,Rainwise IP-100,2013-07-05 06:41:00,
2013-07-05 00:46:00,70.7,49.0,25.63,SE,135,7.2,8.9,46,0.00,,,0.00,Rainwise IP-100,2013-07-05 06:46:00,
2013-07-05 00:51:00,70.7,49.0,25.63,ESE,112,3.3,12.4,46,0.00,,,0.00,Rainwise IP-100,2013-07-05 06:51:00,
2013-07-05 00:56:00,70.7,49.0,25.63,South,180,7.5,11.7,46,0.00,,,0.00,Rainwise IP-100,2013-07-05 06:56:00,
2013-07-05 01:01:00,70.7,49.0,25.63,ESE,112,5.8,12.6,47,0.00,,,0.00,Rainwise IP-100,2013-07-05 07:01:00,
2013-07-05 01:06:00,70.7,49.0,25.63,SE,135,8.2,11.7,47,0.00,,,0.00,Rainwise IP-100,2013-07-05 07:06:00,
2013-07-05 01:11:00,70.6,49.0,25.63,SSE,157,3.3,11.0,47,0.00,,,0.00,Rainwise IP-100,2013-07-05 07:11:00,
2013-07-05 01:16:00,70.5,49.0,25.63,SSE,157,4.2,12.6,47,0.00,,,0.00,Rainwise IP-100,2013-07-05 07:16:00,
2013-07-05 01:21:00,70.4,49.0,25.63,SSE,157,7.2,12.6,47,0.00,,,0.00,Rainwise IP-100,2013-07-05 07:21:00,
2013-07-05 01:26:00,70.3,50.0,25.63,SSE,157,4.2,10.3,48,0.00,,,0.00,Rainwise IP-100,2013-07-05 07:26:00,
2013-07-05 01:31:00,70.2,50.0,25.63,South,180,5.4,9.3,48,0.00,,,0.00,Rainwise IP-100,2013-07-05 07:31:00,
2013-07-05 01:36:00,70.1,50.0,25.63,South,180,2.6,10.0,48,0.00,,,0.00,Rainwise IP-100,2013-07-05 07:36:00,
2013-07-05 01:41:00,69.9,50.0,25.62,SSE,157,7.2,10.5,48,0.00,,,0.00,Rainwise IP-100,2013-07-05 07:41:00,
2013-07-05 01:46:00,69.6,50.0,25.63,SSE,157,6.1,10.7,49,0.00,,,0.00,Rainwise IP-100,2013-07-05 07:46:00,
2013-07-05 01:51:00,69.4,49.0,25.62,SSE,157,7.0,9.3,49,0.00,,,0.00,Rainwise IP-100,2013-07-05 07:51:00,
2013-07-05 01:56:00,69.1,50.0,25.62,SSE,157,8.6,8.9,50,0.00,,,0.00,Rainwise IP-100,2013-07-05 07:56:00,
2013-07-05 02:01:00,68.8,50.0,25.62,SSE,157,3.5,9.3,50,0.00,,,0.00,Rainwise IP-100,2013-07-05 08:01:00,
2013-07-05 02:06:00,68.6,50.0,25.62,SE,135,4.4,7.0,51,0.00,,,0.00,Rainwise IP-100,2013-07-05 08:06:00,
2013-07-05 02:11:00,68.3,50.0,25.62,ESE,112,4.9,8.9,51,0.00,,,0.00,Rainwise IP-100,2013-07-05 08:11:00,
2013-07-05 02:16:00,68.2,50.0,25.62,SSE,157,8.2,10.5,52,0.00,,,0.00,Rainwise IP-100,2013-07-05 08:16:00,
2013-07-05 02:21:00,68.1,50.0,25.62,SE,135,5.6,10.0,52,0.00,,,0.00,Rainwise IP-100,2013-07-05 08:21:00,
2013-07-05 02:26:00,68.0,50.0,25.61,ESE,112,3.5,9.8,52,0.00,,,0.00,Rainwise IP-100,2013-07-05 08:26:00,
2013-07-05 02:31:00,67.9,50.0,25.61,SSE,157,4.4,7.9,52,0.00,,,0.00,Rainwise IP-100,2013-07-05 08:31:00,
2013-07-05 02:33:00,67.8,50.0,25.61,SSE,157,6.1,7.9,52,0.00,,,0.00,Rainwise IP-100,2013-07-05 08:33:00,
2013-07-05 02:38:00,67.5,50.0,25.61,South,180,5.4,8.2,53,0.00,,,0.00,Rainwise IP-100,2013-07-05 08:38:00,
2013-07-05 02:43:00,67.3,50.0,25.61,SSE,157,3.5,8.6,53,0.00,,,0.00,Rainwise IP-100,2013-07-05 08:43:00,
2013-07-05 02:48:00,67.2,50.0,25.61,SE,135,5.6,9.8,54,0.00,,,0.00,Rainwise IP-100,2013-07-05 08:48:00,
2013-07-05 02:53:00,67.3,50.5,25.61,SE,135,2.6,9.1,54,0.00,,,0.00,Rainwise IP-100,2013-07-05 08:53:00,
2013-07-05 02:58:00,67.2,50.0,25.62,SSE,157,2.3,7.0,54,0.00,,,0.00,Rainwise IP-100,2013-07-05 08:58:00,
2013-07-05 03:03:00,67.1,50.0,25.61,South,180,3.5,5.6,54,0.00,,,0.00,Rainwise IP-100,2013-07-05 09:03:00,
2013-07-05 03:08:00,67.1,50.0,25.61,SSE,157,3.0,8.2,54,0.00,,,0.00,Rainwise IP-100,2013-07-05 09:08:00,
2013-07-05 03:11:00,67.1,50.5,25.61,SSE,157,3.3,6.8,55,0.00,,,0.00,Rainwise IP-100,2013-07-05 09:11:00,
2013-07-05 03:16:00,67.1,50.5,25.61,South,180,4.7,7.9,55,0.00,,,0.00,Rainwise IP-100,2013-07-05 09:16:00,
2013-07-05 03:21:00,67.1,50.5,25.61,SSE,157,3.0,6.1,55,0.00,,,0.00,Rainwise IP-100,2013-07-05 09:21:00,
2013-07-05 03:26:00,67.1,50.5,25.61,SSE,157,1.6,5.1,55,0.00,,,0.00,Rainwise IP-100,2013-07-05 09:26:00,
2013-07-05 03:31:00,67.0,50.5,25.61,SE,135,4.0,5.8,55,0.00,,,0.00,Rainwise IP-100,2013-07-05 09:31:00,
2013-07-05 03:36:00,66.9,50.5,25.60,SE,135,3.7,4.7,55,0.00,,,0.00,Rainwise IP-100,2013-07-05 09:36:00,
2013-07-05 03:41:00,66.8,50.0,25.61,SE,135,2.6,5.6,55,0.00,,,0.00,Rainwise IP-100,2013-07-05 09:41:00,
2013-07-05 03:46:00,66.7,50.5,25.60,SE,135,1.2,5.4,56,0.00,,,0.00,Rainwise IP-100,2013-07-05 09:46:00,
2013-07-05 03:51:00,66.5,50.5,25.60,ESE,112,3.7,4.4,56,0.00,,,0.00,Rainwise IP-100,2013-07-05 09:51:00,
2013-07-05 03:56:00,66.4,50.0,25.60,SSE,157,1.9,5.4,56,0.00,,,0.00,Rainwise IP-100,2013-07-05 09:56:00,
2013-07-05 04:01:00,66.3,50.5,25.60,SE,135,1.2,4.9,57,0.00,,,0.00,Rainwise IP-100,2013-07-05 10:01:00,
2013-07-05 04:06:00,66.2,50.5,25.60,SSE,157,1.4,5.6,57,0.00,,,0.00,Rainwise IP-100,2013-07-05 10:06:00,
2013-07-05 04:11:00,66.1,50.0,25.60,SSE,157,3.7,6.8,57,0.00,,,0.00,Rainwise IP-100,2013-07-05 10:11:00,
2013-07-05 04:16:00,66.1,50.0,25.60,SSE,157,5.4,7.0,57,0.00,,,0.00,Rainwise IP-100,2013-07-05 10:16:00,
2013-07-05 04:21:00,66.1,50.0,25.60,SE,135,1.4,6.8,57,0.00,,,0.00,Rainwise IP-100,2013-07-05 10:21:00,
2013-07-05 04:26:00,66.0,50.0,25.60,SSE,157,1.9,4.2,57,0.00,,,0.00,Rainwise IP-100,2013-07-05 10:26:00,
2013-07-05 04:31:00,65.9,50.5,25.60,SSW,202,3.5,4.9,58,0.00,,,0.00,Rainwise IP-100,2013-07-05 10:31:00,
2013-07-05 04:36:00,65.7,50.5,25.60,SE,135,0.0,4.4,58,0.00,,,0.00,Rainwise IP-100,2013-07-05 10:36:00,
2013-07-05 04:41:00,65.4,50.5,25.60,SSE,157,1.9,5.8,58,0.00,,,0.00,Rainwise IP-100,2013-07-05 10:41:00,
2013-07-05 04:46:00,65.3,50.5,25.60,SSE,157,5.4,6.3,59,0.00,,,0.00,Rainwise IP-100,2013-07-05 10:46:00,
2013-07-05 04:51:00,65.1,50.5,25.60,SSE,157,1.9,6.5,59,0.00,,,0.00,Rainwise IP-100,2013-07-05 10:51:00,
2013-07-05 04:56:00,64.8,50.5,25.60,SSE,157,1.6,7.0,59,0.00,,,0.00,Rainwise IP-100,2013-07-05 10:56:00,
2013-07-05 05:01:00,64.5,50.5,25.60,SSE,157,0.0,5.1,60,0.00,,,0.00,Rainwise IP-100,2013-07-05 11:01:00,
2013-07-05 05:06:00,64.2,50.5,25.60,SSE,157,3.0,4.7,61,0.00,,,0.00,Rainwise IP-100,2013-07-05 11:06:00,
2013-07-05 05:11:00,64.0,50.5,25.60,ESE,112,4.2,4.7,61,0.00,,,0.00,Rainwise IP-100,2013-07-05 11:11:00,
2013-07-05 05:16:00,63.7,50.5,25.60,SE,135,0.0,5.4,62,0.00,,,0.00,Rainwise IP-100,2013-07-05 11:16:00,
2013-07-05 05:21:00,63.6,50.5,25.60,SE,135,0.0,4.2,62,0.00,,,0.00,Rainwise IP-100,2013-07-05 11:21:00,
2013-07-05 05:26:00,63.5,50.5,25.60,SE,135,1.6,4.7,63,0.00,,,0.00,Rainwise IP-100,2013-07-05 11:26:00,
2013-07-05 05:31:00,63.4,50.5,25.60,ESE,112,1.4,5.8,63,0.00,,,0.00,Rainwise IP-100,2013-07-05 11:31:00,
2013-07-05 05:36:00,63.2,50.5,25.60,SSE,157,0.0,4.7,64,0.00,,,0.00,Rainwise IP-100,2013-07-05 11:36:00,
2013-07-05 05:41:00,63.0,50.5,25.60,SSE,157,3.5,5.4,64,0.00,,,0.00,Rainwise IP-100,2013-07-05 11:41:00,
2013-07-05 05:46:00,62.9,50.5,25.60,SSE,157,3.3,5.6,64,0.00,,,0.00,Rainwise IP-100,2013-07-05 11:46:00,
2013-07-05 05:51:00,62.8,51.0,25.60,ESE,112,3.5,5.4,65,0.00,,,0.00,Rainwise IP-100,2013-07-05 11:51:00,
2013-07-05 05:56:00,62.6,50.5,25.60,SSE,157,3.5,4.2,65,0.00,,,0.00,Rainwise IP-100,2013-07-05 11:56:00,
2013-07-05 06:01:00,62.6,50.5,25.60,SSE,157,5.1,5.6,65,0.00,,,0.00,Rainwise IP-100,2013-07-05 12:01:00,
2013-07-05 06:06:00,62.7,50.5,25.60,SSE,157,3.7,7.0,65,0.00,,,0.00,Rainwise IP-100,2013-07-05 12:06:00,
2013-07-05 06:11:00,62.9,51.0,25.59,SSE,157,4.0,6.8,65,0.00,,,0.00,Rainwise IP-100,2013-07-05 12:11:00,
2013-07-05 06:16:00,63.0,51.0,25.60,South,180,3.7,7.2,65,0.00,,,0.00,Rainwise IP-100,2013-07-05 12:16:00,
2013-07-05 06:21:00,63.0,51.0,25.60,SSE,157,1.9,7.0,65,0.00,,,0.00,Rainwise IP-100,2013-07-05 12:21:00,
2013-07-05 06:26:00,63.1,51.0,25.60,South,180,4.4,6.5,65,0.00,,,0.00,Rainwise IP-100,2013-07-05 12:26:00,
2013-07-05 06:31:00,63.4,51.0,25.60,SSE,157,2.6,5.8,64,0.00,,,0.00,Rainwise IP-100,2013-07-05 12:31:00,
2013-07-05 06:36:00,63.7,51.0,25.60,SSE,157,2.3,6.5,64,0.00,,,0.00,Rainwise IP-100,2013-07-05 12:36:00,
2013-07-05 06:41:00,64.0,51.0,25.60,South,180,5.8,6.5,64,0.00,,,0.00,Rainwise IP-100,2013-07-05 12:41:00,
2013-07-05 06:46:00,64.5,51.0,25.60,SSE,157,6.5,7.0,63,0.00,,,0.00,Rainwise IP-100,2013-07-05 12:46:00,
2013-07-05 06:51:00,65.0,51.0,25.60,SE,135,2.8,7.7,62,0.00,,,0.00,Rainwise IP-100,2013-07-05 12:51:00,
2013-07-05 06:56:00,65.6,51.0,25.60,SSE,157,3.3,8.9,61,0.00,,,0.00,Rainwise IP-100,2013-07-05 12:56:00,
2013-07-05 07:01:00,66.2,52.0,25.60,SE,135,1.9,7.2,60,0.00,,,0.00,Rainwise IP-100,2013-07-05 13:01:00,
2013-07-05 07:06:00,66.7,52.0,25.60,South,180,6.1,7.7,59,0.00,,,0.00,Rainwise IP-100,2013-07-05 13:06:00,
2013-07-05 07:11:00,67.1,52.0,25.61,SSE,157,6.1,8.4,58,0.00,,,0.00,Rainwise IP-100,2013-07-05 13:11:00,
2013-07-05 07:16:00,67.4,52.0,25.60,South,180,4.4,7.9,58,0.00,,,0.00,Rainwise IP-100,2013-07-05 13:16:00,
2013-07-05 07:21:00,67.8,52.0,25.60,South,180,6.3,7.9,57,0.00,,,0.00,Rainwise IP-100,2013-07-05 13:21:00,
2013-07-05 07:26:00,68.3,52.0,25.61,SSE,157,3.3,7.0,56,0.00,,,0.00,Rainwise IP-100,2013-07-05 13:26:00,
2013-07-05 07:31:00,68.8,53.0,25.61,SSE,157,5.1,6.1,56,0.00,,,0.00,Rainwise IP-100,2013-07-05 13:31:00,
2013-07-05 07:36:00,69.2,53.0,25.60,SSE,157,4.4,7.9,55,0.00,,,0.00,Rainwise IP-100,2013-07-05 13:36:00,
2013-07-05 07:41:00,69.7,52.0,25.60,South,180,1.2,6.5,54,0.00,,,0.00,Rainwise IP-100,2013-07-05 13:41:00,
2013-07-05 07:46:00,70.3,53.0,25.60,SSE,157,3.7,7.0,53,0.00,,,0.00,Rainwise IP-100,2013-07-05 13:46:00,
2013-07-05 07:51:00,70.5,53.0,25.60,SSW,202,3.0,6.1,53,0.00,,,0.00,Rainwise IP-100,2013-07-05 13:51:00,
2013-07-05 07:56:00,70.9,53.0,25.60,South,180,3.3,6.1,52,0.00,,,0.00,Rainwise IP-100,2013-07-05 13:56:00,
2013-07-05 08:01:00,71.7,53.5,25.60,SSE,157,1.6,4.4,52,0.00,,,0.00,Rainwise IP-100,2013-07-05 14:01:00,
2013-07-05 08:06:00,72.2,53.5,25.61,SSE,157,4.2,4.4,51,0.00,,,0.00,Rainwise IP-100,2013-07-05 14:06:00,
2013-07-05 08:11:00,72.2,53.0,25.61,South,180,5.6,5.6,50,0.00,,,0.00,Rainwise IP-100,2013-07-05 14:11:00,
2013-07-05 08:16:00,72.7,53.5,25.61,SSW,202,2.8,5.8,50,0.00,,,0.00,Rainwise IP-100,2013-07-05 14:16:00,
2013-07-05 08:21:00,73.2,53.5,25.61,South,180,6.3,6.5,49,0.00,,,0.00,Rainwise IP-100,2013-07-05 14:21:00,
2013-07-05 08:26:00,73.2,53.5,25.61,SSE,157,5.8,8.2,49,0.00,,,0.00,Rainwise IP-100,2013-07-05 14:26:00,
2013-07-05 08:33:00,73.8,53.5,25.61,South,180,3.7,7.2,49,0.00,,,0.00,Rainwise IP-100,2013-07-05 14:33:00,
2013-07-05 08:39:00,74.2,53.5,25.61,SSW,202,2.6,9.3,48,0.00,,,0.00,Rainwise IP-100,2013-07-05 14:39:00,
2013-07-05 08:44:00,74.2,53.5,25.61,SSE,157,4.9,8.2,48,0.00,,,0.00,Rainwise IP-100,2013-07-05 14:44:00,
2013-07-05 08:49:00,74.5,53.5,25.61,SSW,202,4.9,6.1,47,0.00,,,0.00,Rainwise IP-100,2013-07-05 14:49:00,
2013-07-05 08:54:00,75.0,53.5,25.61,South,180,2.8,7.7,47,0.00,,,0.00,Rainwise IP-100,2013-07-05 14:54:00,
2013-07-05 08:59:00,75.9,53.5,25.61,SSW,202,3.5,5.4,46,0.00,,,0.00,Rainwise IP-100,2013-07-05 14:59:00,
2013-07-05 09:04:00,76.6,53.5,25.61,SSW,202,3.0,6.5,45,0.00,,,0.00,Rainwise IP-100,2013-07-05 15:04:00,
2013-07-05 09:09:00,77.4,54.0,25.61,South,180,5.8,7.0,44,0.00,,,0.00,Rainwise IP-100,2013-07-05 15:09:00,
2013-07-05 09:14:00,78.0,54.0,25.60,SSW,202,3.3,6.3,43,0.00,,,0.00,Rainwise IP-100,2013-07-05 15:14:00,
2013-07-05 09:19:00,77.9,53.0,25.60,SSE,157,3.0,6.5,41,0.00,,,0.00,Rainwise IP-100,2013-07-05 15:19:00,
2013-07-05 09:24:00,78.0,53.0,25.60,SSW,202,4.9,6.5,41,0.00,,,0.00,Rainwise IP-100,2013-07-05 15:24:00,
2013-07-05 09:29:00,78.2,53.0,25.60,WNW,292,1.4,6.8,41,0.00,,,0.00,Rainwise IP-100,2013-07-05 15:29:00,
2013-07-05 09:34:00,79.1,53.0,25.60,South,180,0.0,4.4,40,0.00,,,0.00,Rainwise IP-100,2013-07-05 15:34:00,
2013-07-05 09:39:00,79.9,53.0,25.60,SSE,157,0.0,6.5,39,0.00,,,0.00,Rainwise IP-100,2013-07-05 15:39:00,
2013-07-05 09:44:00,80.3,53.0,25.60,SSE,157,3.5,6.1,38,0.00,,,0.00,Rainwise IP-100,2013-07-05 15:44:00,
2013-07-05 09:49:00,80.7,53.0,25.60,SSE,157,1.9,5.4,38,0.00,,,0.00,Rainwise IP-100,2013-07-05 15:49:00,
2013-07-05 09:54:00,80.8,53.0,25.60,SSW,202,3.5,7.2,38,0.00,,,0.00,Rainwise IP-100,2013-07-05 15:54:00,
2013-07-05 09:59:00,80.8,52.0,25.60,SSE,157,2.8,5.8,37,0.00,,,0.00,Rainwise IP-100,2013-07-05 15:59:00,
2013-07-05 10:04:00,81.7,53.0,25.60,SSW,202,2.6,5.1,37,0.00,,,0.00,Rainwise IP-100,2013-07-05 16:04:00,
2013-07-05 10:09:00,82.8,53.5,25.60,SSW,202,0.0,3.7,36,0.00,,,0.00,Rainwise IP-100,2013-07-05 16:09:00,
2013-07-05 10:14:00,83.1,53.0,25.60,SSE,157,0.0,5.6,35,0.00,,,0.00,Rainwise IP-100,2013-07-05 16:14:00,
2013-07-05 10:19:00,83.7,53.0,25.59,South,180,2.6,6.8,34,0.00,,,0.00,Rainwise IP-100,2013-07-05 16:19:00,
2013-07-05 10:24:00,84.9,53.0,25.59,SSE,157,1.2,2.8,33,0.00,,,0.00,Rainwise IP-100,2013-07-05 16:24:00,
2013-07-05 10:29:00,85.3,52.0,25.59,SSW,202,2.6,5.6,32,0.00,,,0.00,Rainwise IP-100,2013-07-05 16:29:00,
2013-07-05 10:34:00,84.8,51.0,25.59,SSE,157,1.2,6.1,32,0.00,,,0.00,Rainwise IP-100,2013-07-05 16:34:00,
2013-07-05 10:39:00,85.0,52.0,25.59,SSE,157,4.0,4.0,32,0.00,,,0.00,Rainwise IP-100,2013-07-05 16:39:00,
2013-07-05 10:44:00,85.8,51.0,25.59,South,180,4.4,6.8,31,0.00,,,0.00,Rainwise IP-100,2013-07-05 16:44:00,
2013-07-05 10:49:00,85.9,51.0,25.59,SE,135,5.1,5.1,30,0.00,,,0.00,Rainwise IP-100,2013-07-05 16:49:00,
2013-07-05 10:54:00,86.8,50.5,25.58,WSW,247,2.8,5.6,29,0.00,,,0.00,Rainwise IP-100,2013-07-05 16:54:00,
2013-07-05 10:59:00,87.6,51.0,25.58,SE,135,4.9,4.9,29,0.00,,,0.00,Rainwise IP-100,2013-07-05 16:59:00,
2013-07-05 11:04:00,86.9,50.5,25.58,ESE,112,1.6,4.9,29,0.00,,,0.00,Rainwise IP-100,2013-07-05 17:04:00,
2013-07-05 11:09:00,86.2,50.5,25.58,SSE,157,4.2,6.3,29,0.00,,,0.00,Rainwise IP-100,2013-07-05 17:09:00,
2013-07-05 11:14:00,86.2,50.5,25.58,SE,135,2.1,5.4,29,0.00,,,0.00,Rainwise IP-100,2013-07-05 17:14:00,
2013-07-05 11:19:00,86.3,49.0,25.58,SSE,157,5.1,5.1,28,0.00,,,0.00,Rainwise IP-100,2013-07-05 17:19:00,
2013-07-05 11:24:00,86.2,49.0,25.58,SSE,157,0.0,5.8,28,0.00,,,0.00,Rainwise IP-100,2013-07-05 17:24:00,
2013-07-05 11:29:00,86.6,48.0,25.58,SSW,202,1.2,6.3,27,0.00,,,0.00,Rainwise IP-100,2013-07-05 17:29:00,
2013-07-05 11:34:00,87.6,50.5,25.58,South,180,5.8,7.9,28,0.00,,,0.00,Rainwise IP-100,2013-07-05 17:34:00,
2013-07-05 11:39:00,87.8,50.0,25.58,South,180,1.2,7.7,27,0.00,,,0.00,Rainwise IP-100,2013-07-05 17:39:00,
2013-07-05 11:44:00,87.7,49.0,25.58,SE,135,3.0,7.0,26,0.00,,,0.00,Rainwise IP-100,2013-07-05 17:44:00,
2013-07-05 11:49:00,87.7,47.5,25.58,SSE,157,3.0,8.6,25,0.00,,,0.00,Rainwise IP-100,2013-07-05 17:49:00,
2013-07-05 11:54:00,87.3,47.5,25.58,ESE,112,3.0,6.3,25,0.00,,,0.00,Rainwise IP-100,2013-07-05 17:54:00,
2013-07-05 11:59:00,87.2,47.5,25.58,ESE,112,2.3,6.1,25,0.00,,,0.00,Rainwise IP-100,2013-07-05 17:59:00,
2013-07-05 12:04:00,87.2,46.0,25.58,SE,135,2.3,6.3,24,0.00,,,0.00,Rainwise IP-100,2013-07-05 18:04:00,
2013-07-05 12:09:00,87.4,47.5,25.58,SSE,157,4.0,6.5,25,0.00,,,0.00,Rainwise IP-100,2013-07-05 18:09:00,
2013-07-05 12:14:00,87.9,48.0,25.58,SSE,157,3.3,8.2,25,0.00,,,0.00,Rainwise IP-100,2013-07-05 18:14:00,
2013-07-05 12:19:00,88.0,48.0,25.58,SSW,202,4.4,8.2,25,0.00,,,0.00,Rainwise IP-100,2013-07-05 18:19:00,
2013-07-05 12:24:00,88.0,48.0,25.57,ESE,112,3.0,6.8,25,0.00,,,0.00,Rainwise IP-100,2013-07-05 18:24:00,
2013-07-05 12:29:00,88.2,47.0,25.57,SSE,157,5.4,10.0,24,0.00,,,0.00,Rainwise IP-100,2013-07-05 18:29:00,
2013-07-05 12:34:00,88.8,47.5,25.57,SSE,157,4.7,9.3,24,0.00,,,0.00,Rainwise IP-100,2013-07-05 18:34:00,
2013-07-05 12:39:00,89.5,48.0,25.57,SSE,157,3.0,8.4,24,0.00,,,0.00,Rainwise IP-100,2013-07-05 18:39:00,
2013-07-05 12:44:00,89.7,47.0,25.56,SSW,202,6.1,10.3,23,0.00,,,0.00,Rainwise IP-100,2013-07-05 18:44:00,
2013-07-05 12:49:00,89.8,46.0,25.56,SE,135,2.8,13.1,22,0.00,,,0.00,Rainwise IP-100,2013-07-05 18:49:00,
2013-07-05 12:54:00,90.1,45.0,25.56,South,180,7.9,11.7,21,0.00,,,0.00,Rainwise IP-100,2013-07-05 18:54:00,
2013-07-05 12:59:00,90.3,44.0,25.56,South,180,7.2,11.4,20,0.00,,,0.00,Rainwise IP-100,2013-07-05 18:59:00,
2013-07-05 13:04:00,90.5,44.0,25.56,ESE,112,5.1,10.5,20,0.00,,,0.00,Rainwise IP-100,2013-07-05 19:04:00,
2013-07-05 13:09:00,91.0,44.0,25.56,SSE,157,4.7,11.7,20,0.00,,,0.00,Rainwise IP-100,2013-07-05 19:09:00,
2013-07-05 13:14:00,91.2,43.0,25.56,ESE,112,3.3,11.2,19,0.00,,,0.00,Rainwise IP-100,2013-07-05 19:14:00,
2013-07-05 13:19:00,91.1,43.0,25.55,ESE,112,4.7,13.5,19,0.00,,,0.00,Rainwise IP-100,2013-07-05 19:19:00,
2013-07-05 13:24:00,91.6,45.0,25.55,SSE,157,6.8,10.3,20,0.00,,,0.00,Rainwise IP-100,2013-07-05 19:24:00,
2013-07-05 13:29:00,92.1,45.0,25.56,SSE,157,1.9,13.8,20,0.00,,,0.00,Rainwise IP-100,2013-07-05 19:29:00,
2013-07-05 13:34:00,91.8,45.0,25.56,SSE,157,5.1,12.4,20,0.00,,,0.00,Rainwise IP-100,2013-07-05 19:34:00,
2013-07-05 13:40:00,91.7,44.0,25.56,SSW,202,6.3,13.1,19,0.00,,,0.00,Rainwise IP-100,2013-07-05 19:40:00,
2013-07-05 13:45:00,91.7,41.0,25.55,SSW,202,2.8,14.9,17,0.00,,,0.00,Rainwise IP-100,2013-07-05 19:45:00,
2013-07-05 13:50:00,91.9,41.0,25.55,South,180,11.2,14.9,17,0.00,,,0.00,Rainwise IP-100,2013-07-05 19:50:00,
2013-07-05 13:55:00,92.1,41.0,25.55,SSW,202,0.0,17.5,17,0.00,,,0.00,Rainwise IP-100,2013-07-05 19:55:00,
2013-07-05 14:00:00,92.3,39.0,25.55,SSW,202,8.2,12.4,16,0.00,,,0.00,Rainwise IP-100,2013-07-05 20:00:00,
2013-07-05 14:05:00,92.7,38.0,25.54,SSE,157,9.3,16.1,15,0.00,,,0.00,Rainwise IP-100,2013-07-05 20:05:00,
2013-07-05 14:10:00,92.5,40.0,25.54,South,180,8.2,16.3,16,0.00,,,0.00,Rainwise IP-100,2013-07-05 20:10:00,
2013-07-05 14:15:00,92.6,40.0,25.54,South,180,3.5,9.8,16,0.00,,,0.00,Rainwise IP-100,2013-07-05 20:15:00,
2013-07-05 14:20:00,92.9,40.0,25.54,SSE,157,11.4,15.2,16,0.00,,,0.00,Rainwise IP-100,2013-07-05 20:20:00,
2013-07-05 14:25:00,92.7,40.0,25.54,SSE,157,5.4,16.6,16,0.00,,,0.00,Rainwise IP-100,2013-07-05 20:25:00,
2013-07-05 14:30:00,92.3,39.0,25.54,South,180,12.1,14.7,16,0.00,,,0.00,Rainwise IP-100,2013-07-05 20:30:00,
2013-07-05 14:35:00,92.3,39.0,25.54,SSE,157,10.0,15.6,16,0.00,,,0.00,Rainwise IP-100,2013-07-05 20:35:00,
2013-07-05 14:40:00,92.4,39.0,25.53,South,180,6.3,14.2,16,0.00,,,0.00,Rainwise IP-100,2013-07-05 20:40:00,
2013-07-05 14:45:00,92.3,39.0,25.54,SSE,157,5.4,13.5,16,0.00,,,0.00,Rainwise IP-100,2013-07-05 20:45:00,
2013-07-05 14:50:00,92.4,39.0,25.53,South,180,10.0,12.4,16,0.00,,,0.00,Rainwise IP-100,2013-07-05 20:50:00,
2013-07-05 14:55:00,92.4,41.0,25.53,SSE,157,2.6,14.5,17,0.00,,,0.00,Rainwise IP-100,2013-07-05 20:55:00,
2013-07-05 15:00:00,92.8,41.0,25.53,SSE,157,11.2,13.8,17,0.00,,,0.00,Rainwise IP-100,2013-07-05 21:00:00,
2013-07-05 15:05:00,93.5,42.0,25.52,South,180,7.2,14.5,17,0.00,,,0.00,Rainwise IP-100,2013-07-05 21:05:00,
2013-07-05 15:10:00,93.5,42.0,25.52,SSW,202,11.9,16.1,17,0.00,,,0.00,Rainwise IP-100,2013-07-05 21:10:00,
2013-07-05 15:15:00,93.6,42.0,25.52,SSE,157,6.8,14.0,17,0.00,,,0.00,Rainwise IP-100,2013-07-05 21:15:00,
2013-07-05 15:20:00,93.9,42.0,25.53,SSW,202,5.6,16.8,17,0.00,,,0.00,Rainwise IP-100,2013-07-05 21:20:00,
2013-07-05 15:25:00,93.8,42.0,25.53,SE,135,10.7,17.3,17,0.00,,,0.00,Rainwise IP-100,2013-07-05 21:25:00,
2013-07-05 15:30:00,93.6,42.0,25.52,SSW,202,5.6,12.1,17,0.00,,,0.00,Rainwise IP-100,2013-07-05 21:30:00,
2013-07-05 15:35:00,93.8,42.0,25.52,WSW,247,6.5,13.3,17,0.00,,,0.00,Rainwise IP-100,2013-07-05 21:35:00,
2013-07-05 15:40:00,93.9,42.0,25.52,SSE,157,4.9,12.8,17,0.00,,,0.00,Rainwise IP-100,2013-07-05 21:40:00,
2013-07-05 15:45:00,93.8,42.0,25.51,SSE,157,11.0,11.0,17,0.00,,,0.00,Rainwise IP-100,2013-07-05 21:45:00,
2013-07-05 15:50:00,93.5,42.0,25.51,SE,135,7.0,14.7,17,0.00,,,0.00,Rainwise IP-100,2013-07-05 21:50:00,
2013-07-05 15:55:00,93.2,42.0,25.51,SSE,157,10.3,17.0,17,0.00,,,0.00,Rainwise IP-100,2013-07-05 21:55:00,
2013-07-05 16:00:00,93.1,42.0,25.51,SSW,202,7.7,17.7,17,0.00,,,0.00,Rainwise IP-100,2013-07-05 22:00:00,
2013-07-05 16:05:00,93.3,42.0,25.51,South,180,5.1,14.0,17,0.00,,,0.00,Rainwise IP-100,2013-07-05 22:05:00,
2013-07-05 16:10:00,93.6,42.0,25.50,South,180,6.5,17.0,17,0.00,,,0.00,Rainwise IP-100,2013-07-05 22:10:00,
2013-07-05 16:15:00,93.8,42.0,25.49,ESE,112,16.1,17.7,17,0.00,,,0.00,Rainwise IP-100,2013-07-05 22:15:00,
2013-07-05 16:20:00,93.9,42.0,25.50,SSE,157,6.3,16.3,17,0.00,,,0.00,Rainwise IP-100,2013-07-05 22:20:00,
2013-07-05 16:25:00,93.8,42.0,25.50,SSE,157,7.0,20.5,17,0.00,,,0.00,Rainwise IP-100,2013-07-05 22:25:00,
2013-07-05 16:30:00,93.3,43.0,25.49,SSW,202,5.6,13.8,18,0.00,,,0.00,Rainwise IP-100,2013-07-05 22:30:00,
2013-07-05 16:35:00,93.0,43.0,25.49,SSE,157,6.8,16.6,18,0.00,,,0.00,Rainwise IP-100,2013-07-05 22:35:00,
2013-07-05 16:40:00,93.1,43.0,25.50,SSE,157,11.7,14.5,18,0.00,,,0.00,Rainwise IP-100,2013-07-05 22:40:00,
2013-07-05 16:45:00,93.1,43.0,25.49,SSW,202,6.5,21.2,18,0.00,,,0.00,Rainwise IP-100,2013-07-05 22:45:00,
2013-07-05 16:50:00,93.0,43.0,25.49,South,180,6.8,18.0,18,0.00,,,0.00,Rainwise IP-100,2013-07-05 22:50:00,
2013-07-05 16:55:00,93.0,43.0,25.49,South,180,6.1,14.5,18,0.00,,,0.00,Rainwise IP-100,2013-07-05 22:55:00,
2013-07-05 17:00:00,93.1,43.0,25.49,ESE,112,8.6,11.0,18,0.00,,,0.00,Rainwise IP-100,2013-07-05 23:00:00,
2013-07-05 17:05:00,93.2,43.0,25.49,South,180,7.9,10.5,18,0.00,,,0.00,Rainwise IP-100,2013-07-05 23:05:00,
2013-07-05 17:10:00,93.3,43.0,25.49,SE,135,2.3,10.7,18,0.00,,,0.00,Rainwise IP-100,2013-07-05 23:10:00,
2013-07-05 17:15:00,93.3,43.0,25.49,South,180,4.0,11.4,18,0.00,,,0.00,Rainwise IP-100,2013-07-05 23:15:00,
2013-07-05 17:20:00,93.2,43.0,25.49,SSW,202,8.2,9.3,18,0.00,,,0.00,Rainwise IP-100,2013-07-05 23:20:00,
2013-07-05 17:25:00,93.7,42.0,25.49,SSW,202,8.2,15.9,17,0.00,,,0.00,Rainwise IP-100,2013-07-05 23:25:00,
2013-07-05 17:30:00,94.1,43.0,25.49,SSW,202,7.0,16.1,17,0.00,,,0.00,Rainwise IP-100,2013-07-05 23:30:00,
2013-07-05 17:35:00,94.2,43.0,25.50,SSW,202,6.8,12.4,17,0.00,,,0.00,Rainwise IP-100,2013-07-05 23:35:00,
2013-07-05 17:40:00,93.9,42.0,25.49,ESE,112,5.1,16.8,17,0.00,,,0.00,Rainwise IP-100,2013-07-05 23:40:00,
2013-07-05 17:45:00,93.4,42.0,25.49,SSE,157,13.5,16.8,17,0.00,,,0.00,Rainwise IP-100,2013-07-05 23:45:00,
2013-07-05 17:50:00,93.1,43.0,25.49,SSE,157,8.6,13.8,18,0.00,,,0.00,Rainwise IP-100,2013-07-05 23:50:00,
2013-07-05 17:55:00,93.1,43.0,25.49,SSE,157,4.7,13.8,18,0.00,,,0.00,Rainwise IP-100,2013-07-05 23:55:00,
2013-07-05 18:00:00,93.2,43.0,25.50,South,180,6.8,11.4,18,0.00,,,0.00,Rainwise IP-100,2013-07-06 00:00:00,
2013-07-05 18:05:00,93.2,43.0,25.50,SSE,157,7.0,10.5,18,0.00,,,0.00,Rainwise IP-100,2013-07-06 00:05:00,
2013-07-05 18:10:00,93.1,43.0,25.50,SSE,157,10.3,10.7,18,0.00,,,0.00,Rainwise IP-100,2013-07-06 00:10:00,
2013-07-05 18:11:00,93.1,43.0,25.50,SSE,157,4.2,10.7,18,0.00,,,0.00,Rainwise IP-100,2013-07-06 00:11:00,
2013-07-05 18:16:00,93.0,43.0,25.50,SSE,157,11.4,12.8,18,0.00,,,0.00,Rainwise IP-100,2013-07-06 00:16:00,
2013-07-05 18:21:00,93.1,43.0,25.50,South,180,6.8,13.1,18,0.00,,,0.00,Rainwise IP-100,2013-07-06 00:21:00,
2013-07-05 18:26:00,93.1,43.0,25.51,South,180,5.1,8.4,18,0.00,,,0.00,Rainwise IP-100,2013-07-06 00:26:00,
2013-07-05 18:31:00,92.9,43.0,25.51,SSW,202,4.9,9.3,18,0.00,,,0.00,Rainwise IP-100,2013-07-06 00:31:00,
2013-07-05 18:36:00,92.8,43.0,25.51,SSW,202,1.2,8.2,18,0.00,,,0.00,Rainwise IP-100,2013-07-06 00:36:00,
2013-07-05 18:41:00,92.7,44.0,25.51,South,180,4.4,6.3,19,0.00,,,0.00,Rainwise IP-100,2013-07-06 00:41:00,
2013-07-05 18:46:00,92.5,44.0,25.51,SSW,202,2.3,5.8,19,0.00,,,0.00,Rainwise IP-100,2013-07-06 00:46:00,
2013-07-05 18:51:00,91.9,44.0,25.52,WNW,292,21.9,28.4,19,0.00,,,0.00,Rainwise IP-100,2013-07-06 00:51:00,
2013-07-05 18:56:00,88.1,47.0,25.52,NNW,337,6.5,26.6,24,0.00,,,0.00,Rainwise IP-100,2013-07-06 00:56:00,
2013-07-05 19:01:00,83.8,50.0,25.51,NNW,337,27.5,42.7,31,0.00,,,0.00,Rainwise IP-100,2013-07-06 01:01:00,
2013-07-05 19:06:00,81.0,53.5,25.52,NW,315,16.3,42.0,38,0.00,,,0.00,Rainwise IP-100,2013-07-06 01:06:00,
2013-07-05 19:11:00,78.1,54.5,25.52,NW,315,14.5,32.4,44,0.06,,,0.01,Rainwise IP-100,2013-07-06 01:11:00,
2013-07-05 19:16:00,77.0,54.5,25.53,NNW,337,19.4,25.9,46,0.12,,,0.02,Rainwise IP-100,2013-07-06 01:16:00,
2013-07-05 19:21:00,77.1,54.5,25.54,WNW,292,14.9,28.0,46,0.06,,,0.02,Rainwise IP-100,2013-07-06 01:21:00,
2013-07-05 19:26:00,77.1,54.5,25.54,WNW,292,21.7,23.1,46,0.00,,,0.02,Rainwise IP-100,2013-07-06 01:26:00,
2013-07-05 19:31:00,77.3,55.0,25.54,NNW,337,9.6,25.9,46,0.00,,,0.02,Rainwise IP-100,2013-07-06 01:31:00,
2013-07-05 19:36:00,77.9,54.5,25.54,WNW,292,14.9,25.2,44,0.00,,,0.02,Rainwise IP-100,2013-07-06 01:36:00,
2013-07-05 19:41:00,78.2,54.0,25.53,NW,315,15.9,24.2,43,0.00,,,0.02,Rainwise IP-100,2013-07-06 01:41:00,
2013-07-05 19:46:00,78.4,53.5,25.54,NW,315,12.4,22.2,42,0.00,,,0.02,Rainwise IP-100,2013-07-06 01:46:00,
2013-07-05 19:51:00,78.7,53.5,25.54,WNW,292,8.2,21.7,41,0.00,,,0.02,Rainwise IP-100,2013-07-06 01:51:00,
2013-07-05 19:56:00,79.0,53.0,25.54,WNW,292,11.4,22.6,40,0.00,,,0.02,Rainwise IP-100,2013-07-06 01:56:00,
2013-07-05 20:01:00,79.1,52.0,25.53,NW,315,15.4,19.6,39,0.00,,,0.02,Rainwise IP-100,2013-07-06 02:01:00,
2013-07-05 20:06:00,79.4,51.0,25.53,NNW,337,8.6,19.8,38,0.00,,,0.02,Rainwise IP-100,2013-07-06 02:06:00,
2013-07-05 20:11:00,80.0,50.5,25.53,NW,315,6.8,26.6,36,0.00,,,0.02,Rainwise IP-100,2013-07-06 02:11:00,
2013-07-05 20:16:00,80.3,50.0,25.53,NW,315,11.9,20.1,35,0.00,,,0.02,Rainwise IP-100,2013-07-06 02:16:00,
2013-07-05 20:21:00,80.4,50.0,25.53,NNW,337,9.8,19.4,34,0.00,,,0.02,Rainwise IP-100,2013-07-06 02:21:00,
2013-07-05 20:26:00,80.3,49.0,25.54,NNW,337,13.1,17.3,34,0.00,,,0.02,Rainwise IP-100,2013-07-06 02:26:00,
2013-07-05 20:31:00,80.1,49.0,25.53,NNW,337,8.2,15.9,34,0.00,,,0.02,Rainwise IP-100,2013-07-06 02:31:00,
2013-07-05 20:36:00,79.9,50.0,25.53,NNW,337,6.8,16.8,35,0.00,,,0.02,Rainwise IP-100,2013-07-06 02:36:00,
2013-07-05 20:41:00,79.7,50.0,25.53,NNW,337,11.9,16.6,35,0.00,,,0.02,Rainwise IP-100,2013-07-06 02:41:00,
2013-07-05 20:46:00,79.8,50.0,25.54,NNW,337,7.5,14.9,35,0.00,,,0.02,Rainwise IP-100,2013-07-06 02:46:00,
2013-07-05 20:51:00,79.7,50.5,25.53,NNW,337,9.8,11.7,36,0.00,,,0.02,Rainwise IP-100,2013-07-06 02:51:00,
2013-07-05 20:56:00,79.5,50.5,25.54,NNW,337,6.3,11.9,36,0.00,,,0.02,Rainwise IP-100,2013-07-06 02:56:00,
2013-07-05 21:01:00,79.2,50.5,25.54,North,360,5.1,8.4,37,0.00,,,0.02,Rainwise IP-100,2013-07-06 03:01:00,
2013-07-05 21:06:00,79.1,50.5,25.55,ENE,67,5.4,6.8,37,0.00,,,0.02,Rainwise IP-100,2013-07-06 03:06:00,
2013-07-05 21:11:00,78.8,50.5,25.55,ENE,67,6.8,7.5,37,0.00,,,0.02,Rainwise IP-100,2013-07-06 03:11:00,
2013-07-05 21:16:00,78.6,51.0,25.56,ESE,112,4.7,10.5,38,0.00,,,0.02,Rainwise IP-100,2013-07-06 03:16:00,
2013-07-05 21:21:00,78.7,51.0,25.56,SSE,157,2.3,8.9,38,0.00,,,0.02,Rainwise IP-100,2013-07-06 03:21:00,
2013-07-05 21:26:00,79.4,50.5,25.57,ENE,67,6.1,12.1,37,0.00,,,0.02,Rainwise IP-100,2013-07-06 03:26:00,
2013-07-05 21:31:00,80.0,50.0,25.57,ENE,67,5.4,8.2,35,0.00,,,0.02,Rainwise IP-100,2013-07-06 03:31:00,
2013-07-05 21:36:00,79.8,50.0,25.57,ESE,112,3.5,9.3,35,0.00,,,0.02,Rainwise IP-100,2013-07-06 03:36:00,
2013-07-05 21:41:00,79.6,50.5,25.57,ESE,112,6.8,10.5,36,0.00,,,0.02,Rainwise IP-100,2013-07-06 03:41:00,
2013-07-05 21:46:00,79.3,50.0,25.57,ENE,67,7.7,9.8,36,0.00,,,0.02,Rainwise IP-100,2013-07-06 03:46:00,
2013-07-05 21:51:00,78.8,50.5,25.57,ENE,67,2.8,9.3,37,0.00,,,0.02,Rainwise IP-100,2013-07-06 03:51:00,
2013-07-05 21:56:00,78.2,50.5,25.57,ESE,112,1.2,5.1,38,0.00,,,0.02,Rainwise IP-100,2013-07-06 03:56:00,
2013-07-05 22:01:00,78.0,51.0,25.57,ESE,112,4.0,4.0,39,0.00,,,0.02,Rainwise IP-100,2013-07-06 04:01:00,
2013-07-05 22:06:00,78.3,50.5,25.57,ESE,112,2.1,6.8,38,0.00,,,0.02,Rainwise IP-100,2013-07-06 04:06:00,
2013-07-05 22:11:00,78.6,51.0,25.57,East,90,3.3,7.7,38,0.00,,,0.02,Rainwise IP-100,2013-07-06 04:11:00,
2013-07-05 22:16:00,78.6,51.0,25.58,ESE,112,3.0,5.8,38,0.00,,,0.02,Rainwise IP-100,2013-07-06 04:16:00,
2013-07-05 22:21:00,78.4,51.0,25.57,ESE,112,2.6,7.5,39,0.00,,,0.02,Rainwise IP-100,2013-07-06 04:21:00,
2013-07-05 22:26:00,78.1,52.0,25.57,ESE,112,3.3,7.7,40,0.00,,,0.02,Rainwise IP-100,2013-07-06 04:26:00,
2013-07-05 22:31:00,77.9,53.0,25.57,SSE,157,3.5,6.3,41,0.00,,,0.02,Rainwise IP-100,2013-07-06 04:31:00,
2013-07-05 22:36:00,77.5,53.5,25.57,ESE,112,2.6,5.6,43,0.00,,,0.02,Rainwise IP-100,2013-07-06 04:36:00,
2013-07-05 22:41:00,77.0,53.5,25.57,SE,135,0.0,3.7,44,0.00,,,0.02,Rainwise IP-100,2013-07-06 04:41:00,
2013-07-05 22:46:00,76.7,54.0,25.57,South,180,4.0,4.7,45,0.00,,,0.02,Rainwise IP-100,2013-07-06 04:46:00,
2013-07-05 22:51:00,76.5,53.5,25.57,SSE,157,2.8,4.9,45,0.00,,,0.02,Rainwise IP-100,2013-07-06 04:51:00,
2013-07-05 22:56:00,76.4,53.5,25.57,SSE,157,2.3,4.7,45,0.00,,,0.02,Rainwise IP-100,2013-07-06 04:56:00,
2013-07-05 23:01:00,76.2,54.0,25.58,WSW,247,2.6,3.7,46,0.00,,,0.02,Rainwise IP-100,2013-07-06 05:01:00,
2013-07-05 23:03:00,76.1,53.5,25.58,WSW,247,2.1,3.7,46,0.00,,,0.02,Rainwise IP-100,2013-07-06 05:03:00,
2013-07-05 23:08:00,75.9,53.5,25.58,WNW,292,2.6,4.4,46,0.00,,,0.02,Rainwise IP-100,2013-07-06 05:08:00,
2013-07-05 23:13:00,75.6,54.0,25.58,West,270,0.0,2.8,47,0.00,,,0.02,Rainwise IP-100,2013-07-06 05:13:00,
2013-07-05 23:18:00,75.3,54.0,25.58,West,270,0.0,1.2,47,0.00,,,0.02,Rainwise IP-100,2013-07-06 05:18:00,
2013-07-05 23:23:00,75.2,54.0,25.58,WNW,292,4.4,5.6,48,0.00,,,0.02,Rainwise IP-100,2013-07-06 05:23:00,
2013-07-05 23:28:00,74.7,54.5,25.58,WNW,292,4.4,7.0,49,0.00,,,0.02,Rainwise IP-100,2013-07-06 05:28:00,
2013-07-05 23:33:00,73.7,53.0,25.58,WSW,247,3.7,10.0,48,0.00,,,0.02,Rainwise IP-100,2013-07-06 05:33:00,
2013-07-05 23:38:00,72.9,52.0,25.58,West,270,5.1,7.7,48,0.00,,,0.02,Rainwise IP-100,2013-07-06 05:38:00,
2013-07-05 23:43:00,72.4,51.0,25.58,WNW,292,7.2,7.9,48,0.00,,,0.02,Rainwise IP-100,2013-07-06 05:43:00,
2013-07-05 23:48:00,72.2,52.0,25.58,WNW,292,3.7,7.7,49,0.00,,,0.02,Rainwise IP-100,2013-07-06 05:48:00,
2013-07-05 23:53:00,72.0,53.0,25.58,WNW,292,4.4,7.7,50,0.00,,,0.02,Rainwise IP-100,2013-07-06 05:53:00,
2013-07-05 23:58:00,71.6,53.0,25.58,WNW,292,5.8,7.2,51,0.00,,,0.02,Rainwise IP-100,2013-07-06 05:58:00,